This is the latest recevied weather packets stored in our database for station/object K0CVS. If no packets are shown the sender has not sent any weather packets the latest 10 day(s).
| Time | Temp. | Humidity | Pressure | Rain* | Wind** | Luminosity | Snow |
|---|---|---|---|---|---|---|---|
| 1777950627 | 22.78° C | 60% | 1003.7 hPa | 0 mm | - | 0 W/m² | - |
| 1777950324 | 22.78° C | 59% | 1003.5 hPa | 0 mm | - | 0 W/m² | - |
| 1777950020 | 22.22° C | 59% | 1003.5 hPa | 0 mm | - | 0 W/m² | - |
| 1777949716 | 21.67° C | 58% | 1003.5 hPa | 0 mm | - | 0 W/m² | - |
| 1777949416 | 21.67° C | 58% | 1003.6 hPa | 0 mm | - | 0 W/m² | - |
| 1777949111 | 21.67° C | 58% | 1003.3 hPa | 0 mm | - | 0 W/m² | - |
| 1777948809 | 21.67° C | 58% | 1003.2 hPa | 0 mm | - | 0 W/m² | - |
| 1777948506 | 21.67° C | 57% | 1003.2 hPa | 0 mm | - | 0 W/m² | - |
| 1777948203 | 22.22° C | 57% | 1003.2 hPa | 0 mm | - | 0 W/m² | - |
| 1777947901 | 22.22° C | 57% | 1003.3 hPa | 0 mm | - | 0 W/m² | - |
| 1777947598 | 22.22° C | 56% | 1003.1 hPa | 0 mm | - | 0 W/m² | - |
| 1777947294 | 22.22° C | 56% | 1002.9 hPa | 0 mm | - | 0 W/m² | - |
| 1777946990 | 22.22° C | 56% | 1002.9 hPa | 0 mm | - | 0 W/m² | - |
| 1777946685 | 22.22° C | 56% | 1002.8 hPa | 0 mm | - | 0 W/m² | - |
| 1777946382 | 22.78° C | 55% | 1002.7 hPa | 0 mm | - | 0 W/m² | - |
| 1777946080 | 22.78° C | 54% | 1002.8 hPa | 0 mm | - | 0 W/m² | - |
| 1777945777 | 22.78° C | 55% | 1002.5 hPa | 0 mm | - | 0 W/m² | - |
| 1777945473 | 23.33° C | 54% | 1002.4 hPa | 0 mm | - | 0 W/m² | - |
| 1777945171 | 23.33° C | 54% | 1002.6 hPa | 0 mm | - | 0 W/m² | - |
| 1777944868 | 23.33° C | 53% | 1002.4 hPa | 0 mm | - | 0 W/m² | - |
| 1777944565 | 23.89° C | 53% | 1002.5 hPa | 0 mm | - | 0 W/m² | - |
| 1777944263 | 23.89° C | 52% | 1002.4 hPa | 0 mm | - | 0 W/m² | - |
| 1777943959 | 23.89° C | 52% | 1002.1 hPa | 0 mm | - | 1 W/m² | - |
| 1777943656 | 24.44° C | 51% | 1002.4 hPa | 0 mm | - | 1 W/m² | - |
| 1777943353 | 24.44° C | 50% | 1002.2 hPa | 0 mm | - | 2 W/m² | - |
* Rain latest hour (hover to see other rain measurements)
** Current wind speed in m/s (hover to see current wind gust speed)